Wind_Speed
88 84 80 78 77 76 76 76 77 79 82 86 89 90 90 91 90 89 88 87 84 82 78 75 73 71 69 68 67 65 63 61 60 57 55 52 49 47 45 44 42 41 39
81 78 76 74 72 71 70 71 72 73 73 75 79 83 87 91 93 93 92 92 90 87 84 81 77 74 72 69 68 67 65 63 62 61 59 56 53 50 48 46 44 42 41
77 76 73 68 64 62 61 62 65 68 70 71 72 76 82 88 92 96 96 96 95 92 89 86 82 78 75 72 70 68 66 64 64 64 62 60 57 54 51 50 47 45 43
74 70 65 58 53 51 50 50 53 58 63 67 69 71 77 85 91 95 98 99 99 97 94 91 87 83 79 76 73 70 66 64 63 64 65 63 61 58 55 53 51 49 47
69 63 56 51 48 46 46 46 46 48 52 58 64 68 71 79 88 94 98 101 103 101 98 95 92 88 83 79 76 73 69 65 63 63 65 66 65 62 60 58 55 53 50
64 57 52 50 49 49 49 48 47 47 47 48 53 61 67 74 83 91 97 102 105 104 102 99 96 92 88 84 80 77 73 68 63 62 64 66 66 65 63 62 60 58 54
61 56 53 53 53 54 54 54 52 50 49 48 47 50 59 69 77 85 93 100 105 106 105 103 99 96 93 88 84 81 77 74 67 61 63 65 65 65 62 62 62 62 59
60 57 56 57 58 59 59 59 58 55 52 52 49 46 49 60 71 80 88 95 102 107 108 106 103 100 96 93 88 85 81 78 75 67 61 62 63 62 61 60 61 63 63
60 59 60 61 63 64 64 64 63 60 56 54 53 49 46 51 62 73 83 90 97 104 108 109 106 103 100 96 93 89 86 83 80 77 66 62 64 64 63 60 59 63 66
61 62 64 67 69 70 70 69 67 64 60 56 54 52 49 46 54 64 76 85 91 98 105 110 109 107 103 100 97 93 90 86 84 82 78 67 62 61 61 58 57 61 66
62 66 69 73 74 74 73 72 69 66 62 58 54 53 51 48 48 57 67 78 87 92 99 107 110 110 106 103 100 97 94 90 87 86 83 77 69 61 60 59 58 57 63
67 72 75 75 73 71 69 67 65 63 60 57 53 51 50 48 48 49 59 70 81 87 91 99 107 110 109 105 102 100 97 93 89 87 85 83 78 70 62 59 57 54 57
75 78 75 68 62 57 53 52 52 53 53 52 50 49 48 47 47 47 52 62 74 83 87 90 99 107 110 107 103 101 99 97 92 88 85 85 82 77 68 62 59 54 54
81 78 70 61 53 46 41 36 34 37 41 44 44 44 44 45 45 46 48 56 67 78 85 86 89 99 108 108 104 100 101 99 95 91 85 83 83 80 75 67 60 57 54
82 76 65 55 47 42 36 29 22 21 28 34 37 38 40 41 42 44 45 50 61 72 81 84 85 91 101 106 105 100 99 100 97 94 88 83 81 80 78 74 65 59 56
79 71 59 50 44 39 34 26 15 7 15 23 29 32 34 36 38 40 43 46 55 67 76 82 82 84 91 100 105 102 98 99 98 96 90 84 81 79 78 76 73 66 61
76 66 54 46 40 36 32 28 19 8 5 14 21 26 29 32 34 37 40 44 50 61 71 78 81 81 84 92 102 104 99 96 98 98 94 88 82 78 77 75 73 70 66
73 62 50 41 36 32 30 27 23 14 6 6 13 19 24 28 30 33 37 41 46 55 66 74 80 79 79 84 94 102 101 97 97 98 95 91 85 80 77 75 73 70 68
72 60 47 38 32 28 26 24 20 14 7 2 8 14 20 24 27 29 33 37 42 49 60 69 76 79 76 78 86 97 101 98 96 96 95 93 88 82 78 75 73 71 67
73 62 47 36 29 25 22 19 16 11 5 2 8 13 17 21 23 26 29 33 38 45 55 65 72 77 76 74 77 90 99 100 97 94 93 90 87 83 79 76 73 71 68
75 67 52 38 29 24 21 17 14 10 6 6 9 12 16 18 20 22 26 30 35 41 50 60 69 74 75 72 72 81 92 99 98 93 89 86 83 80 78 76 75 72 69
75 71 60 45 33 26 22 18 15 12 9 8 9 11 13 15 17 19 23 27 33 39 47 56 65 71 73 70 68 71 82 93 98 94 89 84 81 80 79 77 75 72 69
73 73 67 54 41 32 26 21 18 14 12 9 9 9 10 12 14 17 20 25 30 36 44 53 62 68 69 67 64 64 72 83 92 95 91 83 79 78 78 78 77 74 70
70 71 70 63 50 39 32 26 22 17 14 10 7 6 6 9 12 15 19 23 28 34 42 50 58 64 65 63 60 60 63 71 82 92 92 84 78 76 77 76 75 73 71
67 69 70 68 59 47 37 31 26 21 17 12 7 3 3 7 11 15 18 22 26 32 39 47 54 60 62 59 56 54 58 64 73 82 86 83 77 75 75 74 74 73 72
65 67 68 69 66 56 44 36 30 25 20 15 9 4 3 8 12 16 19 22 25 31 38 44 51 56 58 57 52 49 51 58 66 74 81 79 75 73 74 73 72 72 71
Wind_Direction
301 298 295 291 287 283 278 274 270 266 262 258 254 250 244 240 237 234 233 232 231 229 229 229 228 228 229 230 229 228 226 225 225 225 225 226 227 226 226 225 224 223 223
304 302 299 295 291 286 281 275 269 264 261 257 252 247 241 238 235 232 230 229 229 228 227 227 226 226 227 228 228 228 226 225 225 224 224 226 227 227 226 226 225 224 224
308 306 303 300 295 290 285 279 272 266 260 256 251 245 239 234 231 230 228 227 227 226 225 224 224 224 224 225 227 227 226 225 225 224 223 224 226 227 227 227 226 225 225
311 308 305 301 297 294 290 286 279 271 263 257 250 245 239 232 228 227 226 225 224 224 223 223 222 222 222 223 224 225 224 224 225 225 224 223 225 226 227 227 227 227 226
312 308 304 300 298 296 295 293 289 282 272 261 252 245 239 234 229 225 223 223 222 222 221 221 221 221 221 221 222 223 223 221 222 224 224 223 223 225 227 227 227 227 227
311 306 301 298 296 295 294 293 292 289 283 273 260 248 239 235 231 226 222 221 221 220 220 220 219 219 219 219 219 220 221 220 219 224 225 224 222 223 226 227 228 227 227
310 305 300 296 295 293 292 290 289 287 285 281 271 255 243 235 231 228 223 220 219 219 218 218 218 217 217 218 218 218 220 219 216 220 224 223 223 223 224 228 229 227 226
309 304 299 296 293 292 290 288 286 283 281 279 274 265 249 238 232 228 225 222 218 217 217 217 216 216 216 216 217 217 218 218 216 217 220 222 222 222 224 227 229 227 224
309 304 300 297 294 291 288 286 282 279 276 274 272 268 258 242 233 229 226 223 220 217 216 216 215 215 215 215 215 216 216 217 217 216 218 220 221 223 224 225 227 228 224
313 309 305 300 296 291 287 283 279 276 272 269 266 265 260 250 236 229 227 224 221 218 216 215 214 214 214 214 214 215 215 216 217 216 217 218 220 221 221 223 225 228 225
317 313 308 303 298 293 288 283 277 272 268 264 260 258 257 253 242 230 225 225 221 219 217 215 214 214 213 213 213 213 214 215 217 217 217 219 219 218 219 221 223 225 223
322 317 312 307 302 297 290 283 276 269 264 260 256 252 251 250 246 234 224 223 222 220 218 215 213 213 212 212 212 212 213 215 216 218 218 218 221 221 221 222 223 223 221
328 324 321 318 313 307 298 287 276 265 257 253 250 247 246 245 243 237 227 220 220 219 218 216 214 213 212 211 211 211 212 214 216 217 218 218 220 223 223 223 224 223 220
335 333 333 331 330 326 318 302 283 263 249 244 242 242 241 241 239 237 230 221 218 218 217 216 215 213 211 210 210 210 212 213 215 217 218 218 219 221 223 225 225 225 222
341 341 341 342 343 344 340 329 302 265 240 233 233 235 237 238 237 235 231 223 217 216 216 215 215 213 212 209 208 208 210 212 214 216 217 217 218 219 222 224 225 224 222
346 345 345 347 351 355 358 358 348 285 227 222 225 229 233 235 236 233 230 225 218 214 214 214 214 213 212 209 207 205 208 210 212 215 217 217 217 217 219 222 224 225 223
350 349 348 351 358 7 16 23 30 44 186 211 220 226 231 233 234 232 229 225 218 213 212 213 213 212 211 210 207 204 204 208 211 214 215 216 216 216 218 220 222 224 225
355 353 351 353 1 13 24 33 40 51 81 187 216 225 229 231 233 231 228 224 219 213 210 210 211 211 211 209 208 204 202 204 209 212 214 216 217 216 216 218 220 223 225
0 358 354 353 360 12 23 29 35 42 56 154 214 223 228 229 231 229 227 223 218 212 208 208 210 209 210 209 208 205 202 202 205 210 213 215 216 216 217 218 219 221 222
5 4 -0 356 355 1 11 17 18 20 13 268 232 230 231 230 229 227 224 220 216 211 207 206 208 208 209 208 208 207 205 203 202 205 210 213 216 216 216 217 219 220 221
8 9 7 2 356 351 356 359 356 351 330 282 253 241 234 229 227 222 218 216 213 209 205 203 205 207 207 208 208 207 208 206 202 202 205 209 213 214 215 216 217 218 220
10 12 12 8 3 356 352 348 341 332 315 287 264 250 238 229 221 214 211 210 208 205 202 200 202 205 206 207 207 209 209 209 207 201 201 203 207 211 213 214 215 216 218
12 14 15 13 10 6 360 354 346 337 326 304 280 258 238 224 212 206 204 203 202 201 199 198 199 203 204 205 207 209 211 212 211 205 202 202 203 206 209 211 212 213 214
13 15 16 17 15 11 7 4 359 354 345 333 310 274 235 210 198 195 194 193 194 195 195 194 196 200 202 204 206 209 211 213 214 211 208 204 202 204 204 206 209 210 212
14 15 17 19 18 16 13 10 6 3 360 356 350 320 206 185 180 179 180 182 186 189 189 190 193 198 201 203 206 210 213 214 216 214 212 209 205 205 204 205 207 209 211
14 16 18 19 20 20 18 15 12 10 9 10 15 37 133 157 162 163 166 171 177 182 183 185 190 195 199 202 206 209 213 214 216 216 213 211 207 207 206 205 206 208 210
Height
5614 5603 5593 5585 5578 5572 5568 5566 5565 5566 5570 5576 5584 5595 5608 5619 5632 5644 5657 5668 5679 5689 5699 5709 5719 5728 5737 5746 5755 5764 5772 5781 5789 5796 5803 5810 5816 5822 5828 5833 5838 5843 5847
5589 5578 5569 5562 5554 5548 5543 5540 5539 5540 5542 5546 5553 5561 5574 5587 5601 5614 5628 5641 5654 5666 5677 5689 5699 5710 5721 5730 5740 5749 5758 5767 5776 5784 5792 5799 5807 5814 5820 5826 5831 5836 5841
5567 5555 5546 5538 5531 5525 5520 5516 5515 5515 5517 5520 5526 5532 5542 5555 5568 5582 5598 5613 5627 5640 5653 5667 5680 5692 5703 5714 5724 5734 5744 5753 5762 5771 5780 5788 5796 5804 5811 5818 5823 5829 5834
5547 5536 5526 5518 5512 5506 5501 5497 5494 5492 5493 5495 5501 5507 5514 5525 5536 5551 5568 5584 5599 5614 5629 5645 5659 5672 5685 5697 5708 5719 5729 5739 5749 5758 5766 5776 5785 5793 5801 5808 5815 5820 5826
5528 5518 5510 5502 5496 5491 5485 5481 5477 5473 5472 5472 5476 5483 5490 5497 5507 5521 5538 5554 5570 5587 5605 5621 5637 5652 5666 5679 5691 5704 5715 5726 5736 5744 5753 5762 5772 5781 5790 5798 5805 5812 5818
5511 5502 5494 5487 5481 5476 5470 5465 5461 5458 5455 5453 5455 5460 5466 5472 5481 5494 5509 5524 5541 5561 5579 5596 5613 5630 5645 5660 5674 5687 5700 5712 5723 5731 5739 5748 5758 5767 5777 5786 5794 5802 5809
5495 5486 5478 5472 5465 5459 5454 5449 5445 5442 5439 5436 5436 5440 5445 5450 5457 5469 5481 5495 5514 5534 5553 5571 5589 5607 5625 5641 5656 5670 5684 5698 5710 5716 5723 5734 5744 5754 5764 5773 5782 5791 5798
5478 5469 5462 5454 5447 5441 5435 5429 5425 5423 5422 5419 5418 5420 5426 5431 5436 5446 5456 5469 5487 5507 5527 5546 5566 5585 5603 5620 5637 5652 5667 5681 5695 5703 5709 5720 5731 5741 5751 5760 5769 5778 5787
5463 5453 5444 5435 5427 5420 5413 5408 5404 5402 5403 5401 5399 5401 5405 5411 5417 5426 5435 5447 5463 5481 5501 5521 5542 5562 5581 5599 5617 5633 5649 5664 5678 5691 5698 5707 5718 5729 5739 5747 5757 5766 5775
5448 5436 5426 5414 5403 5394 5387 5381 5378 5377 5379 5382 5382 5383 5386 5390 5397 5407 5416 5427 5441 5457 5476 5496 5518 5538 5558 5578 5596 5614 5630 5646 5661 5675 5686 5693 5704 5716 5727 5736 5745 5754 5763
5434 5419 5405 5390 5376 5365 5356 5351 5349 5350 5353 5358 5362 5365 5369 5373 5378 5387 5399 5408 5421 5436 5452 5472 5493 5515 5536 5556 5575 5593 5612 5628 5643 5658 5672 5683 5693 5705 5716 5726 5735 5743 5752
5419 5400 5381 5363 5346 5333 5324 5318 5318 5321 5326 5333 5341 5347 5352 5357 5362 5369 5381 5391 5403 5417 5432 5449 5470 5492 5513 5534 5554 5574 5594 5610 5626 5642 5657 5670 5682 5693 5704 5715 5724 5733 5743
5401 5378 5356 5336 5319 5305 5294 5289 5288 5292 5301 5311 5320 5328 5335 5341 5347 5354 5364 5374 5385 5399 5414 5431 5449 5469 5490 5513 5535 5556 5576 5594 5610 5626 5641 5657 5669 5682 5693 5704 5714 5723 5733
5379 5355 5334 5315 5300 5286 5276 5269 5267 5270 5280 5291 5303 5312 5320 5326 5333 5341 5349 5359 5370 5382 5397 5414 5430 5448 5471 5495 5518 5539 5559 5578 5595 5611 5626 5642 5657 5670 5683 5694 5704 5715 5725
5363 5339 5320 5305 5292 5279 5268 5259 5255 5258 5267 5278 5290 5299 5307 5314 5321 5328 5336 5344 5356 5368 5383 5399 5414 5432 5453 5475 5499 5522 5542 5562 5580 5596 5612 5628 5644 5658 5672 5684 5694 5705 5716
5352 5331 5314 5302 5290 5279 5267 5259 5254 5256 5263 5272 5281 5290 5297 5304 5311 5318 5325 5332 5342 5355 5370 5385 5402 5418 5437 5458 5482 5506 5527 5546 5564 5582 5599 5615 5631 5646 5660 5673 5685 5696 5706
5348 5327 5312 5301 5292 5282 5272 5265 5261 5261 5265 5271 5278 5284 5290 5296 5302 5308 5314 5322 5331 5343 5358 5373 5390 5406 5424 5443 5465 5490 5512 5531 5550 5567 5585 5602 5618 5633 5648 5661 5674 5686 5696
5346 5327 5312 5303 5295 5287 5280 5274 5270 5269 5271 5274 5277 5281 5285 5290 5295 5300 5306 5314 5323 5334 5348 5363 5379 5396 5413 5431 5452 5475 5497 5516 5535 5553 5571 5588 5605 5621 5636 5649 5662 5674 5686
5348 5329 5314 5305 5298 5292 5286 5281 5278 5276 5276 5276 5277 5279 5281 5285 5290 5295 5301 5308 5316 5326 5339 5354 5369 5387 5404 5422 5440 5461 5482 5501 5521 5540 5557 5574 5592 5609 5623 5637 5650 5663 5676
5351 5332 5317 5307 5300 5295 5290 5286 5283 5281 5279 5277 5277 5278 5279 5282 5286 5290 5296 5303 5311 5320 5332 5346 5360 5378 5396 5414 5431 5449 5468 5487 5507 5527 5544 5562 5579 5596 5611 5626 5641 5653 5665
5356 5337 5321 5310 5302 5297 5292 5288 5285 5282 5280 5278 5277 5277 5278 5280 5283 5287 5292 5298 5306 5315 5326 5339 5353 5370 5388 5406 5421 5439 5456 5473 5494 5513 5532 5550 5568 5585 5599 5614 5627 5640 5653
5362 5343 5327 5315 5306 5299 5293 5289 5285 5281 5279 5277 5275 5275 5276 5278 5281 5284 5289 5295 5302 5310 5321 5333 5347 5363 5382 5400 5417 5432 5448 5463 5482 5502 5519 5537 5555 5572 5587 5602 5616 5629 5642
5368 5350 5334 5320 5309 5301 5294 5289 5284 5280 5277 5275 5274 5273 5274 5276 5279 5283 5287 5293 5299 5307 5317 5329 5343 5359 5378 5396 5413 5428 5440 5452 5469 5486 5506 5525 5542 5559 5575 5589 5603 5617 5630
5375 5358 5342 5327 5315 5305 5297 5290 5284 5280 5277 5274 5272 5272 5273 5275 5278 5282 5287 5292 5299 5306 5315 5327 5341 5358 5375 5391 5405 5419 5431 5445 5460 5475 5493 5513 5530 5547 5562 5577 5591 5605 5619
5382 5367 5351 5336 5322 5310 5301 5293 5287 5282 5278 5274 5273 5272 5273 5275 5279 5283 5287 5293 5299 5306 5315 5326 5340 5356 5372 5388 5401 5414 5426 5439 5451 5465 5482 5501 5518 5534 5550 5565 5579 5593 5607
5389 5374 5359 5344 5331 5317 5306 5298 5290 5285 5280 5276 5275 5274 5275 5277 5281 5285 5290 5295 5301 5308 5317 5328 5341 5355 5370 5385 5397 5409 5420 5431 5443 5458 5473 5491 5507 5521 5538 5553 5567 5581 5595